This is the latest recevied weather packets stored in our database for station/object KR8N. If no packets are shown the sender has not sent any weather packets the latest 10 day(s).
| Time | Temp. | Humidity | Pressure | Rain* | Wind** | Luminosity | Snow |
|---|---|---|---|---|---|---|---|
| 1777487072 | 19.44° C | 79% | 1011.7 hPa | 0 mm | - | 472 W/m² | - |
| 1777486767 | 19.44° C | 79% | 1012 hPa | 0 mm | - | 501 W/m² | - |
| 1777486466 | 19.44° C | 83% | 1012 hPa | 0 mm | - | 552 W/m² | - |
| 1777486163 | 18.89° C | 83% | 1011.9 hPa | 0 mm | - | 268 W/m² | - |
| 1777485860 | 18.89° C | 79% | 1012 hPa | 0 mm | - | 465 W/m² | - |
| 1777485560 | 20° C | 77% | 1012 hPa | 0 mm | - | 240 W/m² | - |
| 1777485257 | 19.44° C | 80% | 1011.8 hPa | 0 mm | - | 484 W/m² | - |
| 1777484953 | 18.89° C | 81% | 1012 hPa | 0 mm | - | 635 W/m² | - |
| 1777484650 | 18.89° C | 84% | 1012.1 hPa | 0 mm | - | 250 W/m² | - |
| 1777484347 | 18.33° C | 86% | 1012 hPa | 0 mm | - | 403 W/m² | - |
| 1777484042 | 18.33° C | 84% | 1012.3 hPa | 0 mm | - | 204 W/m² | - |
| 1777483739 | 18.33° C | 84% | 1012.2 hPa | 0 mm | - | 176 W/m² | - |
| 1777483435 | 18.33° C | 84% | 1012.3 hPa | 0 mm | - | 212 W/m² | - |
| 1777483130 | 19.44° C | 82% | 1012.4 hPa | 0 mm | - | 202 W/m² | - |
| 1777482828 | 19.44° C | 85% | 1012.5 hPa | 0 mm | - | 336 W/m² | - |
| 1777482523 | 18.89° C | 87% | 1012.5 hPa | 0 mm | - | 649 W/m² | - |
| 1777482221 | 18.33° C | 88% | 1012.6 hPa | 0 mm | - | 575 W/m² | - |
| 1777481918 | 17.78° C | 89% | 1012.8 hPa | 0 mm | - | 485 W/m² | - |
| 1777481616 | 17.78° C | 89% | 1012.9 hPa | 0 mm | - | 376 W/m² | - |
| 1777481313 | 17.78° C | 88% | 1013.2 hPa | 0 mm | - | 195 W/m² | - |
| 1777481009 | 17.78° C | 90% | 1013.3 hPa | 0 mm | - | 336 W/m² | - |
| 1777480706 | 17.22° C | 91% | 1013.4 hPa | 0 mm | - | 401 W/m² | - |
| 1777480403 | 17.22° C | 90% | 1013.5 hPa | 0 mm | - | 274 W/m² | - |
| 1777480098 | 17.22° C | 91% | 1013.5 hPa | 0 mm | - | 181 W/m² | - |
| 1777479795 | 17.22° C | 91% | 1013.5 hPa | 0 mm | - | 253 W/m² | - |
* Rain latest hour (hover to see other rain measurements)
** Current wind speed in m/s (hover to see current wind gust speed)